PROITERES
1 38756U 12047B   15232.87808419  .00000396  00000-0  65431-4 0  9992
2 38756 098.2248 333.2739 0013476 090.9958 269.2782 14.75894535158545
BEESAT-3
1 39134U 13015E   15232.87953668  .00003366  00000-0  19970-3 0  9992
2 39134 064.8713 210.4271 0028120 243.5809 116.2429 15.12821606128482
BEESAT-2
1 39136U 13015G   15232.21300151  .00002468  00000-0  15655-3 0  9993
2 39136 064.8718 215.5004 0028382 242.6508 117.1726 15.11079041128336
ZACUBE-1
1 39417U 13066B   15232.84085800  .00000526  00000-0  74789-4 0  9998
2 39417 097.7246 292.9175 0058827 286.3012 073.1736 14.79849309 94192
TRITON-1
1 39427U 13066M   15231.79164711  .00000363  00000-0  67557-4 0  9995
2 39427 097.7096 278.7840 0114642 324.6725 034.6921 14.66758034 93188
DELFIN3XT
1 39428U 13066N   15232.53221125  .00000611  00000-0  10933-3 0  9993
2 39428 097.7102 277.6760 0123019 327.5720 031.7966 14.65572089 93169
GOMX-1
1 39430U 13066Q   15232.78484576  .00000618  00000-0  12316-3 0  9998
2 39430 097.7033 271.2206 0153180 346.7351 012.9825 14.58173208 92790
MO-76
1 39436U 13066W   15232.89357631  .00011693  00000-0  74231-3 0  9996
2 39436 097.7414 309.5245 0020413 240.1062 119.8138 15.08865826 95242
LO-74
1 39440U 13066AA  15232.93669159  .00000455  00000-0  72322-4 0  9991
2 39440 097.7187 287.7959 0080525 299.0662 060.2499 14.74658125 93872
PUCPSAT-1
1 39442U 13066AC  15232.67811498  .00000788  00000-0  89381-4 0  9991
2 39442 097.7348 301.2142 0031465 269.9886 089.7725 14.88799031 93462
SPROUT
1 39770U 14029E   15231.83710584  .00001817  00000-0  22455-3 0  9998
2 39770 097.8740 327.7972 0009570 002.3919 357.7331 14.84007889 67073
POPSAT-HIP1
1 40028U 14033U   15232.91619169  .00001214  00000-0  14107-3 0  9994
2 40028 097.9487 133.3479 0013993 336.3394 023.7174 14.87179316 63400
EO-80
1 40032U 14033Y   15232.79113994  .00000638  00000-0  77756-4 0  9999
2 40032 097.9446 132.8356 0011598 333.0902 026.9711 14.86857883 63375
VELOX-1
1 40057U 14034E   15232.87797461  .00000963  00000-0  14748-3 0  9995
2 40057 098.2150 312.0398 0012158 037.5902 322.6141 14.75997808 61422
DAURIA DX 1
1 40071U 14037C   15232.94464541  .00000425  00000-0  62991-4 0  9999
2 40071 098.3538 307.0137 0009420 038.5772 321.6091 14.80473996 60377
UKUBE-1
1 40074U 14037F   15232.90032162  .00000965  00000-0  12789-3 0  9996
2 40074 098.3555 307.9589 0005656 048.9397 311.2277 14.82359146 60423
HODOYOSHI-1
1 40299U 14070B   15232.93926971  .00002336  00000-0  11250-3 0  9991
2 40299 097.4542 313.6531 0011375 268.0220 146.8913 15.19698200 43657
CHUBUSAT-1
1 40300U 14070C   15232.90267426  .00002297  00000-0  11571-3 0  9996
2 40300 097.4512 312.7165 0020547 269.7600 180.1350 15.18022999 43595
QSAT-EOS
1 40301U 14070D   15232.83812341  .00004324  00000-0  21528-3 0  9997
2 40301 097.4467 311.9350 0030078 270.1854 222.8558 15.17732984 43549
TSUBAME
1 40302U 14070E   15232.93289984  .00002545  00000-0  14358-3 0  9996
2 40302 097.4448 310.4822 0041136 274.5897 133.4209 15.13360701 43460
FIREBIRD FU3
1 40377U 15003B   15232.87331723  .00005834  00000-0  28693-3 0  9998
2 40377 099.1129 278.3324 0156244 042.0030 319.3051 15.08403010 30304
FIREBIRD FU4
1 40378U 15003C   15232.93698046  .00005661  00000-0  27822-3 0  9991
2 40378 099.1130 278.4157 0156529 041.7635 319.5411 15.08408404 30310
GRIFEX
1 40379U 15003D   15232.94069134  .00004724  00000-0  23795-3 0  9997
2 40379 099.1140 278.2584 0157965 043.2672 318.0832 15.07554983 30300
LAMBDA-SAT
1 40458U 98067GB  15136.30676273  .20783109  12527-4  14817-2 0  9995
2 40458 051.6075 233.7697 0010355 318.5347 043.1720 16.39926603 21161
NO-84
1 40654U          15232.45207151  .00007862  00000-0  20225-3 0 00984
2 40654 054.9906 301.4539 0244603 048.0292 314.1094 15.15230309013918
NO-83
1 40655U          15232.42150062  .00013369  00000-0  32966-3 0 01053
2 40655 054.9926 301.2859 0241629 048.0775 314.0449 15.16161225013919
DEORBITSAIL
1 40719U 15032E   15232.03281984  .00001048  00000-0  16451-3 0  9993
2 40719 098.0486 120.9122 0018024 122.4135 237.8729 14.74633050  5947
